Location: Fort Collins
(40.5850°N, 105.0840°W)
Time: 03:29:02
(UTC-06:00)

Daily predictions for brighter satellites

Satellite Brightness Start Highest point End
(mag) Time Altitude Azimuth Time Altitude Azimuth Time Altitude Azimuth
Cosmos 1709 Rocket 4.5 00:00:47 10° NNW 00:06:16 56° WNW 00:06:16 56° WNW
ATLAS CENTAUR R/B 4.1 00:18:47 17° N 00:18:47 17° N 00:19:53 10° NNE
ATLAS 3B R/B 3.0 00:16:16 10° NNW 00:22:23 59° NNE 00:22:23 59° NNE
Cosmos 2369 Rocket 3.6 00:18:11 10° N 00:22:20 30° NE 00:22:20 30° NE
Cosmos 1607 4.5 00:17:20 10° NNW 00:22:36 57° N 00:22:36 57° N
Cosmos 1943 Rocket 4.1 00:26:03 10° N 00:30:15 21° NE 00:30:31 21° NE
SL-16 R/B 3.7 00:45:56 30° NW 00:45:56 30° NW 00:50:44 10° N
USA 238 DEB 4.0 00:40:31 10° NNW 00:47:05 65° NNE 00:47:05 65° NNE
USA 238 4.0 00:40:37 10° NNW 00:47:13 64° NNE 00:47:13 64° NNE
CZ-2C R/B 3.9 01:03:41 10° N 01:07:29 38° NNW 01:07:29 38° NNW
Cosmos 2181 Rocket 4.4 01:31:34 62° NNE 01:31:34 62° NNE 01:36:51 10° N
COSMOS 2455 4.1 01:31:00 10° NNW 01:36:28 35° NE 01:37:28 33° ENE
Cosmos 1943 4.1 01:40:19 44° N 01:40:19 44° N 01:44:20 10° NNE
SL-8 Rocket 4.4 01:35:47 10° N 01:40:46 58° NNE 01:40:46 58° NNE
NOSS 3-4 (A) 4.0 01:46:41 52° ENE 01:46:41 52° ENE 01:51:39 10° NE
NOSS 3-4 (C) 4.0 01:46:47 52° ENE 01:46:47 52° ENE 01:51:45 10° NE
ATLAS 2AS CENTAUR R/B 4.3 01:42:54 25° W 01:46:10 34° NW 01:53:25 10° NNE
NOSS 3-2 (A) 3.9 01:50:54 10° NW 01:58:29 89° WSW 01:58:29 89° WSW
Cosmos 2369 Rocket 4.0 02:02:06 10° NW 02:04:06 21° NW 02:04:06 21° NW
Cosmos 1943 Rocket 3.4 02:08:52 10° NNW 02:12:00 33° NW 02:12:00 33° NW
Nadezhda 3 Rocket 4.4 02:20:00 54° E 02:20:07 54° E 02:26:16 10° NNE
BREEZE-M DEB (TANK) 3.8 02:24:22 48° NE 02:24:22 48° NE 02:31:13 10° ENE
Lacrosse 5 rocket 3.4 02:28:02 27° ENE 02:28:02 27° ENE 02:30:24 10° NE
Aureole 1 Rocket 4.4 02:32:02 38° N 02:32:02 38° N 02:34:33 10° NNE
COSMOS 2406 3.2 02:44:19 78° NNE 02:44:19 78° NNE 02:49:41 10° NNE
USA 215 3.3 02:40:26 10° NE 02:46:55 68° NW 02:47:57 59° W
Meteor 2-16 Rocket 4.4 02:44:00 10° NNW 02:49:37 68° WNW 02:49:37 68° WNW
Cosmos 1656 Rocket 4.3 02:44:59 10° NNW 02:48:42 44° NW 02:48:42 44° NW
IRS-P3 4.2 02:46:45 10° NNE 02:51:40 76° N 02:51:40 76° N
Cosmos 2056 Rocket 4.0 02:48:19 10° N 02:53:34 56° ENE 02:54:19 51° E
RESURS DK-1 3.9 02:57:35 32° N 02:57:35 32° N 03:00:05 10° NNE
Cosmos 1680 Rocket 4.2 02:57:09 44° NW 02:57:09 44° NW 03:01:32 10° N
NOSS 2-2 (E) 4.4 02:59:33 47° NE 02:59:33 47° NE 03:03:03 10° NE
CBERS-1 4.0 02:56:20 10° NNE 03:01:05 77° N 03:01:05 77° N
ADEOS Rocket 3.7 02:57:11 10° NNE 03:03:14 50° E 03:05:31 36° SSE
Cosmos 1821 Rocket 3.9 02:58:13 10° N 03:04:21 78° E 03:05:36 58° SSE
SL-27 R/B 4.4 03:06:51 28° N 03:06:51 28° N 03:08:41 10° NNE
NOSS 3-2 (C) 4.4 03:03:16 10° NW 03:09:26 42° W 03:09:26 42° W
CENTAUR R/B 3.2 03:02:32 10° NNW 03:10:29 79° NE 03:18:57 10° SE
Cosmos 2239 Rocket 4.3 03:06:43 10° N 03:12:54 88° W 03:14:01 62° S
Resurs 1-4 Rocket 2.4 03:10:15 10° NNE 03:15:28 58° E 03:16:22 51° SE
USA 267 3.6 03:12:17 10° ESE 03:18:43 63° NE 03:25:11 10° NW
IRS-1D 3.8 03:13:56 10° NNE 03:19:10 65° ESE 03:20:05 55° SSE
Cosmos 1934 Rocket 4.0 03:14:21 10° N 03:20:42 82° E 03:23:05 42° SSE
COSMOS 2455 3.8 03:16:52 10° NW 03:20:33 32° WNW 03:20:33 32° WNW
Cosmos 1535 Rocket 4.3 03:16:55 10° N 03:23:09 78° W 03:24:26 57° SSW
ARIANE 5 R/B 2.7 03:18:53 10° NNE 03:24:07 67° ESE 03:25:07 54° SSE
SL-08 R/B 4.2 03:26:21 36° NW 03:26:21 36° NW 03:29:37 10° NNW
Cosmos 1605 Rocket 4.3 03:19:01 10° N 03:25:09 61° E 03:29:03 23° SSE
ADEOS 3.6 03:20:28 10° NNE 03:25:42 71° ESE 03:26:41 56° SSE
Cosmos 1953 2.8 03:22:19 10° N 03:25:29 54° N 03:25:29 54° N
SL-16 R/B 2.4 03:25:03 40° SSE 03:27:29 89° WSW 03:33:41 10° NNW
UNKNOWN OBJECT B 4.2 03:23:56 10° NNE 03:27:35 33° E 03:28:20 30° ESE
Cosmos 1452 Rocket 4.4 03:23:10 10° N 03:28:15 47° ENE 03:33:18 10° SE
NPP 4.1 03:23:58 10° N 03:29:06 45° WNW 03:29:21 45° WNW
Cosmos 1371 Rocket 4.4 03:24:25 10° NNW 03:28:55 49° WNW 03:28:55 49° WNW
Cosmos-2242 4.0 03:26:04 10° N 03:30:20 46° E 03:32:00 31° SE
Cosmos 1733 4.0 03:27:16 10° N 03:30:57 46° E 03:31:19 44° E
NOSS 2-2 (D) 3.7 03:35:19 60° NW 03:35:19 60° NW 03:39:48 10° NNE
Cosmos 921 Rocket 3.2 03:31:13 10° NNW 03:35:12 63° WNW 03:35:12 63° WNW
CZ-2D R/B 2.0 03:31:10 10° NNE 03:36:29 89° ESE 03:37:39 56° SSW
Cosmos 1758 Rocket 3.6 03:43:40 61° WNW 03:43:40 61° WNW 03:47:51 10° N
COSMOS 2487 2.9 03:44:17 56° E 03:44:17 56° E 03:47:41 10° NNE
Cosmos 1758 4.3 03:41:20 10° NNW 03:44:11 37° NW 03:44:11 37° NW
Cosmos 2278 4.1 03:42:22 10° NNW 03:48:05 66° ENE 03:53:44 10° SSE
Cosmos 1271 Rocket 4.2 03:45:04 10° NNW 03:46:54 24° NW 03:46:54 24° NW
NOSS 2-2 (C) 4.2 03:53:12 38° WNW 03:53:42 40° NW 03:58:07 10° NNE
Cosmos 1818 4.0 03:55:17 39° W 03:56:46 50° NW 04:02:05 10° NNE
Cosmos 2369 3.8 03:51:03 10° NNW 03:56:49 76° ENE 04:02:32 10° SSE
CZ-2D R/B 3.7 03:53:15 10° NNE 03:57:15 62° E 03:58:29 40° SSE
Cosmos 1656 4.3 03:54:44 10° NNW 04:00:05 55° ENE 04:05:23 10° SE
Lacrosse 5 rocket 2.9 04:03:43 25° WNW 04:05:21 31° NW 04:09:31 10° NNE
Cosmos 1953 Rocket 4.3 04:05:26 34° W 04:05:37 34° WNW 04:09:43 10° N
Cosmos 839 Rocket 4.2 03:59:47 10° NW 04:06:08 67° WSW 04:13:45 10° SSE
Cosmos 1833 Rocket 3.1 04:03:41 24° S 04:06:58 60° ESE 04:12:29 10° NNE
Meteor 2-15 4.4 04:04:57 25° S 04:08:48 88° W 04:14:58 10° N
Cosmos 1980 Rocket 4.2 04:05:53 10° N 04:10:54 30° ENE 04:15:50 10° ESE
Cosmos 2082 Rocket 2.3 04:09:06 26° S 04:12:25 73° ESE 04:18:07 10° NNE
GEOS 3 Rocket 3.8 04:07:29 10° NNE 04:12:44 65° NW 04:15:10 32° WSW
ADEOS II 3.6 04:11:03 10° NNE 04:15:46 33° E 04:20:28 10° SSE
DNEPR-1 R/B 3.6 04:13:07 10° NW 04:17:15 53° WSW 04:21:41 10° SSE
Meteor 2-15 Rocket 4.4 04:14:08 19° S 04:18:40 88° W 04:24:50 10° N
Landsat 4 4.1 04:17:57 10° SSE 04:21:37 62° ENE 04:25:20 10° N
Meteor 2-5 Rocket 3.7 04:20:19 23° SSW 04:24:02 74° W 04:29:55 10° N
EXPRESS MD2 3.4 04:19:35 10° NW 04:25:16 74° NNE 04:28:14 10° ESE
GPS 2-05 Rocket1 3.7 04:25:25 32° S 04:25:44 32° S 04:28:55 10° ESE
Cosmos 389 Rocket 3.3 04:22:35 10° NNW 04:25:40 32° W 04:25:40 32° W
Cosmos 1378 3.1 04:24:42 37° SSW 04:26:00 65° W 04:29:44 10° N
Cosmos 1707 3.4 04:29:01 33° WSW 04:29:53 37° WNW 04:33:31 10° N
Cosmos 158 Rocket 3.9 04:28:08 19° SSW 04:31:44 82° ESE 04:36:55 10° NNE
Cosmos 1727 Rocket 4.3 04:29:47 23° SW 04:33:24 48° WNW 04:39:21 10° N
Cosmos 2061 Rocket 4.2 04:27:14 10° N 04:33:28 76° E 04:39:38 10° SSE
Cosmos 2098 Rocket 3.8 04:31:15 10° NW 04:32:38 19° WNW 04:32:38 19° WNW
CZ-4B R/B 3.9 04:33:07 10° NNE 04:37:25 52° E 04:41:48 10° S
Okean 3 Rocket 4.4 04:35:10 10° SSE 04:39:24 50° E 04:43:42 10° NNE
Meteor 1-16 Rocket 4.1 04:34:27 10° NNW 04:39:44 61° W 04:44:56 10° S
Cosmos 2016 Rocket 4.4 04:33:39 10° N 04:39:54 66° E 04:46:11 10° SSE
Meteor 2-1 Rocket 4.5 04:34:45 10° N 04:40:27 75° E 04:46:14 10° SSE
Cosmos 1470 4.2 04:42:14 10° NW 04:45:05 19° W 04:45:18 19° W
ADEOS Rocket 4.2 04:43:23 10° N 04:48:29 28° WNW 04:52:28 16° WSW
USA 161 2.6 04:49:23 24° W 04:49:25 24° W 04:51:50 10° NW
In-Cosmos 22 4.2 04:45:25 10° S 04:50:42 76° E 04:56:00 10° NNE
Resurs 1-4 Rocket 3.7 04:51:18 10° NNW 04:54:49 18° WNW 04:57:28 13° W
Okean O Rocket 1.7 04:51:40 10° NNE 04:56:08 83° ESE 05:00:31 10° SSW
Cosmos 1459 Rocket 4.0 04:52:38 10° NNW 04:58:43 63° W 05:04:53 10° S
Abrixas 4.3 04:58:05 10° NW 05:00:35 28° NNE 05:03:05 10° E
CENTAUR R/B 4.0 04:54:23 10° WNW 05:00:40 25° WSW 05:07:09 10° SSW
USA 267 3.7 04:55:58 10° SSE 05:01:54 37° SW 05:07:54 10° WNW
ARIANE 5 R/B 4.3 04:59:31 10° NNW 05:02:38 16° WNW 05:05:28 11° W
Cosmos 1802 Rocket 4.0 04:57:09 10° NNW 05:03:32 69° W 05:09:50 10° S
NOSS 8 (H) 4.4 05:03:40 14° SSW 05:06:33 90° NW 05:10:06 10° NE
CZ-2C R/B 4.1 05:02:31 10° SSE 05:06:54 68° ENE 05:11:22 10° N
Tiangong 1 2.8 05:09:10 13° SSW 05:09:10 13° SSW 05:10:35 10° S
Meteor 2-17 Rocket 4.5 05:04:43 10° NNW 05:10:40 60° W 05:16:35 10° S
OE (NEXTSAT) 4.4 05:08:07 15° WSW 05:11:00 75° SSE 05:14:33 10° ENE
Delta 2 Rocket 4.5 05:10:20 14° SW 05:11:45 17° SSW 05:14:01 10° SSE
SL-16 R/B 4.2 05:10:07 11° WSW 05:11:52 12° W 05:14:18 10° WNW
Cosmos 1725 Rocket 4.1 05:07:06 10° N 05:13:25 84° E 05:19:43 10° S
Cosmos 1408 Rocket 4.4 05:09:27 10° S 05:13:47 54° E 05:18:09 10° NNE
Cosmos 2360 4.5 05:08:02 10° NNW 05:13:48 78° ENE 05:19:29 10° SSE
Meteor 1-24 Rocket 4.1 05:09:37 10° SSW 05:14:51 44° WNW 05:20:18 10° N
MOS 1 Rocket 4.3 05:11:48 10° NNW 05:15:24 26° WNW 05:19:08 10° SW
CZ-2D R/B 4.1 05:13:42 10° NW 05:15:45 12° WNW 05:17:47 10° W
Cosmos 1697 Rocket 3.0 05:14:31 10° NW 05:19:50 45° WSW 05:25:08 10° S
PSLV R/B 3.6 05:17:19 10° N 05:21:39 66° WNW 05:25:55 10° SSW
GENESIS II 4.3 05:18:27 10° NW 05:22:19 55° WSW 05:26:07 10° SSE
SL-08 R/B 4.4 05:17:20 10° NNW 05:23:24 68° W 05:29:24 10° S
Cosmos 2221 2.7 05:23:22 10° NNW 05:27:30 49° W 05:31:36 10° SSW
CZ-4B DEB 4.3 05:22:56 10° N 05:28:22 64° WNW 05:33:46 10° SSW
Timation 2 Rocket 4.5 05:24:13 10° SW 05:30:37 48° WNW 05:36:48 10° NNE
MTI 4.0 05:30:23 10° S 05:33:32 49° W 05:36:42 10° NNW
SL-24 R/B 4.2 05:29:55 10° N 05:34:26 61° WNW 05:38:35 10° SSW
Cosmos 2233 Rocket 4.3 05:30:12 10° N 05:36:31 79° E 05:42:50 10° S
